Date String (YYYY-MM-DD hh:mm:ss) UTC,Instrument flags,Ambient pressure (hPa),Sample flow (lpm),Bypass flow (lpm),Sample temperature (°C),Ambient temperature (°C),ASC tube jacket temperature (°C),LED temperature (°C),Box temperature (°C),Sample RH (%),Span deviation,Mass concentration (μg/m³),Mass concentration (μg/m³),Mass concentration (μg/m³)
DateTimeUTC,F1_M11,P_M11,Q1_M11,Q2_M11,T1_M11,T2_M11,T3_M11,T4_M11,T5_M11,U1_M11,ZSPAN_M11,X0_M11,X2_M11,X1_M11
2023-05-02 08:00:00,,0828.3,5.00,0.00,28.8,27.0,00.0,37.3,30.3,13.7,0002.2,0017.25,0006.14,0004.60
2023-05-02 08:01:00,,0828.3,4.99,0.00,28.8,27.0,00.0,37.3,30.3,13.7,0001.3,0016.98,0006.12,0004.61
2023-05-02 08:02:00,,0828.2,5.00,0.00,28.8,27.0,00.0,37.3,30.3,13.7,0001.0,0015.79,0006.22,0004.63
2023-05-02 08:03:00,,0828.3,5.02,0.00,28.8,27.0,00.0,37.3,30.2,13.7,0003.7,0016.26,0006.22,0004.63
2023-05-02 08:04:00,,0828.3,5.00,0.00,28.8,27.0,00.0,37.3,30.2,13.8,0001.3,0016.35,0006.19,0004.63
2023-05-02 08:05:00,,0828.3,5.00,0.00,28.8,27.0,00.0,37.3,30.2,13.7,0002.4,0016.90,0006.20,0004.64
2023-05-02 08:06:00,,0828.2,5.00,0.00,28.8,27.0,00.0,37.3,30.2,13.7,0000.3,0016.58,0006.22,0004.64
2023-05-02 08:07:00,,0828.2,4.99,0.00,28.7,27.0,00.0,37.3,30.2,13.7,0000.0,0016.17,0006.23,0004.66
2023-05-02 08:08:00,,0828.2,4.99,0.00,28.7,27.0,00.0,37.2,30.1,13.7,0000.0,0016.52,0006.29,0004.66
2023-05-02 08:09:00,,0828.2,5.00,0.00,28.7,27.0,00.0,37.2,30.1,13.7,0000.0,0017.31,0006.32,0004.66
2023-05-02 08:10:00,,0828.2,5.00,0.00,28.7,27.0,00.0,37.2,30.1,13.7,0000.0,0017.51,0006.33,0004.66
2023-05-02 08:11:00,,0828.2,5.00,0.00,28.7,26.9,00.0,37.2,30.1,13.7,0000.0,0017.55,0006.32,0004.68
2023-05-02 08:12:00,,0828.2,5.00,0.00,28.7,26.9,00.0,37.2,30.1,13.8,0000.0,0017.21,0006.36,0004.68
2023-05-02 08:13:00,,0828.1,5.00,0.00,28.7,26.9,00.0,37.2,30.1,13.8,0000.0,0017.18,0006.31,0004.68
2023-05-02 08:14:00,,0828.1,5.00,0.00,28.6,26.9,00.0,37.2,30.1,13.7,0000.0,0016.20,0006.22,0004.68
2023-05-02 08:15:00,,0828.1,5.00,0.00,28.6,26.8,00.0,37.1,30.0,13.7,0000.0,0016.05,0006.22,0004.68
2023-05-02 08:16:00,,0828.1,5.00,0.00,28.6,26.8,00.0,37.1,30.0,13.7,0000.0,0015.76,0006.20,0004.68
2023-05-02 08:17:00,,0828.1,5.00,0.00,28.6,26.8,00.0,37.1,30.0,13.8,0000.0,0015.38,0006.15,0004.68
2023-05-02 08:18:00,,0828.1,5.00,0.00,28.6,26.8,00.0,37.1,30.0,13.8,0000.0,0015.18,0006.12,0004.68
2023-05-02 08:19:00,,0828.1,5.00,0.00,28.6,26.8,00.0,37.1,30.0,13.8,0000.0,0014.69,0006.08,0004.67
2023-05-02 08:20:00,,0828.1,5.01,0.00,28.6,26.8,00.0,37.1,30.0,13.8,0004.1,0014.48,0006.06,0004.67
2023-05-02 08:21:00,,0828.1,5.01,0.00,28.5,26.8,00.0,37.1,29.9,13.7,0004.6,0015.34,0006.00,0004.66
2023-05-02 08:22:00,,0828.1,5.00,0.00,28.5,26.8,00.0,37.0,29.9,13.8,0004.7,0015.53,0005.95,0004.64
2023-05-02 08:23:00,,0828.2,5.00,0.00,28.5,26.8,00.0,37.0,29.9,13.8,0003.7,0015.83,0005.90,0004.65
2023-05-02 08:24:00,,0828.2,5.00,0.00,28.5,26.8,00.0,37.0,30.0,13.8,0000.0,0015.45,0005.88,0004.65
2023-05-02 08:25:00,,0828.2,5.00,0.00,28.5,26.8,00.0,37.0,29.9,13.8,0000.0,0015.41,0005.82,0004.63
2023-05-02 08:26:00,,0828.2,5.00,0.00,28.5,26.8,00.0,37.0,29.9,13.9,0000.4,0016.75,0005.86,0004.63
2023-05-02 08:27:00,,0828.2,4.99,0.00,28.5,26.7,00.0,37.0,29.9,13.9,0002.3,0016.38,0005.94,0004.63
2023-05-02 08:28:00,,0828.2,5.00,0.00,28.5,26.7,00.0,37.0,29.9,13.9,0001.8,0016.31,0005.96,0004.63
2023-05-02 08:29:00,,0828.2,5.00,0.00,28.4,26.7,00.0,37.0,29.9,13.9,0002.0,0016.12,0005.93,0004.61
2023-05-02 08:30:00,,0828.2,5.01,0.00,28.4,26.7,00.0,37.0,29.9,13.9,0000.5,0015.83,0005.89,0004.59
2023-05-02 08:31:00,,0828.1,5.00,0.00,28.4,26.7,00.0,36.9,29.9,13.9,0000.4,0015.40,0005.91,0004.57
2023-05-02 08:32:00,,0828.1,5.00,0.00,28.4,26.7,00.0,36.9,29.9,14.0,0000.0,0014.45,0005.87,0004.55
2023-05-02 08:33:00,,0828.1,4.99,0.00,28.4,26.6,00.0,36.9,29.8,13.9,0000.0,0014.34,0005.88,0004.54
2023-05-02 08:34:00,,0828.1,4.99,0.00,28.4,26.6,00.0,36.9,29.8,14.0,0000.0,0014.72,0005.95,0004.51
2023-05-02 08:35:00,,0828.1,5.01,0.00,28.4,26.6,00.0,36.9,29.8,13.9,0000.0,0014.45,0005.93,0004.48
2023-05-02 08:36:00,,0828.1,5.01,0.00,28.4,26.6,00.0,36.9,29.8,13.9,0000.0,0014.44,0005.90,0004.46
2023-05-02 08:37:00,,0828.1,5.00,0.00,28.4,26.6,00.0,36.9,29.8,13.9,0000.0,0013.10,0005.89,0004.44
2023-05-02 08:38:00,,0828.2,4.99,0.00,28.3,26.6,00.0,36.8,29.8,13.9,0000.0,0013.23,0005.83,0004.42
2023-05-02 08:39:00,,0828.2,5.00,0.00,28.3,26.6,00.0,36.8,29.7,14.0,0000.0,0013.35,0005.79,0004.40
2023-05-02 08:40:00,,0828.2,5.01,0.00,28.3,26.5,00.0,36.8,29.7,13.9,0000.0,0014.36,0005.82,0004.38
2023-05-02 08:41:00,,0828.2,5.01,0.00,28.3,26.5,00.0,36.8,29.7,14.0,0000.0,0014.80,0005.81,0004.37
2023-05-02 08:42:00,,0828.2,5.00,0.00,28.3,26.5,00.0,36.8,29.7,14.0,0000.0,0015.37,0005.76,0004.35
2023-05-02 08:43:00,,0828.2,4.99,0.00,28.3,26.5,00.0,36.8,29.7,14.1,0000.0,0015.72,0005.82,0004.34
2023-05-02 08:44:00,,0828.2,4.99,0.00,28.3,26.5,00.0,36.8,29.7,14.0,0000.0,0015.41,0005.82,0004.33
2023-05-02 08:45:00,,0828.2,5.00,0.00,28.2,26.5,00.0,36.8,29.7,14.0,0000.0,0015.22,0005.77,0004.32
2023-05-02 08:46:00,,0828.2,5.01,0.00,28.2,26.4,00.0,36.8,29.7,14.1,0000.0,0015.28,0005.74,0004.30
2023-05-02 08:47:00,,0828.2,5.01,0.00,28.2,26.4,00.0,36.8,29.7,14.1,0000.0,0015.55,0005.70,0004.27
2023-05-02 08:48:00,,0828.2,5.00,0.00,28.2,26.4,00.0,36.7,29.7,14.1,0000.0,0015.86,0005.62,0004.25
2023-05-02 08:49:00,,0828.2,4.99,0.00,28.2,26.4,00.0,36.7,29.7,14.2,0000.0,0015.46,0005.57,0004.23
2023-05-02 08:50:00,,0828.2,4.99,0.00,28.2,26.4,00.0,36.7,29.7,14.2,0000.0,0015.17,0005.55,0004.22
2023-05-02 08:51:00,,0828.2,5.00,0.00,28.2,26.4,00.0,36.7,29.6,14.2,0000.0,0014.29,0005.48,0004.19
2023-05-02 08:52:00,,0828.2,5.01,0.00,28.2,26.4,00.0,36.7,29.6,14.2,0000.0,0013.78,0005.43,0004.18
2023-05-02 08:53:00,,0828.2,5.01,0.00,28.2,26.4,00.0,36.7,29.6,14.3,0000.0,0014.12,0005.44,0004.18
2023-05-02 08:54:00,,0828.2,5.00,0.00,28.1,26.4,00.0,36.7,29.6,14.2,0000.0,0014.06,0005.43,0004.18
2023-05-02 08:55:00,,0828.2,5.00,0.00,28.1,26.4,00.0,36.7,29.6,14.2,0000.0,0014.09,0005.44,0004.18
2023-05-02 08:56:00,,0828.2,4.99,0.00,28.1,26.4,00.0,36.6,29.6,14.3,0000.0,0013.54,0005.39,0004.18
2023-05-02 08:57:00,,0828.2,5.00,0.00,28.1,26.4,00.0,36.6,29.6,14.2,0000.0,0014.31,0005.43,0004.19
2023-05-02 08:58:00,,0828.2,5.01,0.00,28.1,26.4,00.0,36.6,29.6,14.2,0000.0,0014.35,0005.51,0004.21
2023-05-02 08:59:00,,0828.2,5.00,0.00,28.1,26.4,00.0,36.6,29.5,14.3,0000.0,0013.86,0005.57,0004.22
